| time (UTC) | temp C | wind direction | speed KPH | gust KPH | rain 1hr cm | rain 24hr cm | rain mn cm | humidity % | barometer mb |
| 20260506194551 | 16 | 360 | 1.6 | 0.0 | 0.00 | 0.00 | 1.24 | 75 | 1009.1 |
| 20260506193050 | 16 | 360 | 1.6 | 0.0 | 0.00 | 0.00 | 1.24 | 75 | 1009.1 |
| 20260506191550 | 16 | 360 | 0.0 | 0.0 | 0.00 | 0.00 | 1.24 | 75 | 1008.8 |
| 20260506190051 | 16 | 360 | 1.6 | 0.0 | 0.00 | 0.00 | 1.22 | 75 | 1008.7 |
| 20260506184552 | 16 | 360 | 1.6 | 0.0 | 0.00 | 0.00 | 1.22 | 77 | 1008.3 |
| 20260506183056 | 16 | 360 | 0.0 | 0.0 | 0.00 | 0.00 | 1.22 | 77 | 1008.4 |
| 20260506181612 | 17 | 360 | 0.0 | 0.0 | 0.00 | 0.00 | 1.22 | 76 | 1008.3 |
| 20260506180048 | 17 | 360 | 1.6 | 0.0 | 0.00 | 0.00 | 1.22 | 75 | 1008.1 |
| 20260506174547 | 17 | 360 | 1.6 | 0.0 | 0.00 | 0.00 | 1.22 | 76 | 1007.9 |
| 20260506173056 | 17 | 360 | 1.6 | 0.0 | 0.00 | 0.00 | 1.22 | 76 | 1007.8 |
| 20260506171547 | 17 | 360 | 1.6 | 0.0 | 0.00 | 0.00 | 1.22 | 76 | 1007.7 |
| 20260506170049 | 18 | 360 | 1.6 | 0.0 | 0.00 | 0.00 | 1.22 | 76 | 1007.6 |
| 20260506164548 | 18 | 360 | 1.6 | 0.0 | 0.00 | 0.00 | 1.22 | 76 | 1007.6 |
| 20260506163046 | 18 | 360 | 0.0 | 0.0 | 0.00 | 0.00 | 1.22 | 76 | 1007.6 |
| 20260506161547 | 18 | 360 | 1.6 | 0.0 | 0.00 | 0.00 | 1.22 | 76 | 1007.7 |
| 20260506160052 | 18 | 360 | 1.6 | 0.0 | 0.00 | 0.00 | 1.22 | 75 | 1007.7 |
| 20260506154544 | 18 | 360 | 1.6 | 0.0 | 0.00 | 0.00 | 1.19 | 74 | 1007.7 |
| 20260506153105 | 18 | 360 | 1.6 | 0.0 | 0.00 | 0.00 | 1.19 | 75 | 1007.7 |
| 20260506151545 | 18 | 360 | 1.6 | 0.0 | 0.00 | 0.00 | 1.19 | 74 | 1007.6 |
| 20260506150049 | 18 | 360 | 1.6 | 0.0 | 0.00 | 0.00 | 1.19 | 75 | 1007.6 |
| 20260506144544 | 18 | 360 | 1.6 | 0.0 | 0.00 | 0.00 | 1.19 | 75 | 1007.7 |
| 20260506143040 | 18 | 360 | 1.6 | 0.0 | 0.00 | 0.00 | 1.17 | 78 | 1007.7 |
| 20260506141538 | 18 | 360 | 1.6 | 0.0 | 0.00 | 0.00 | 1.17 | 79 | 1007.8 |
| 20260506140038 | 18 | 360 | 0.0 | 0.0 | 0.00 | 0.00 | 1.17 | 81 | 1007.9 |
| 20260506134537 | 18 | 360 | 1.6 | 0.0 | 0.00 | 0.00 | 1.14 | 80 | 1008.2 |
| 20260506133035 | 18 | 360 | 1.6 | 0.0 | 0.00 | 0.00 | 1.14 | 83 | 1008.2 |
| 20260506131539 | 17 | 360 | 1.6 | 0.0 | 0.00 | 0.00 | 1.12 | 84 | 1008.4 |
| 20260506130034 | 17 | 360 | 0.0 | 0.0 | 0.00 | 0.00 | 1.12 | 86 | 1008.5 |
| 20260506124534 | 17 | 360 | 0.0 | 0.0 | 0.00 | 0.00 | 1.09 | 87 | 1008.6 |
| 20260506123033 | 17 | 360 | 0.0 | 0.0 | 0.00 | 0.00 | 1.07 | 83 | 1008.8 |
| 20260506121533 | 18 | 360 | 1.6 | 0.0 | 0.00 | 0.00 | 1.04 | 78 | 1008.7 |
| 20260506120035 | 19 | 360 | 1.6 | 0.0 | 0.00 | 0.00 | 1.04 | 75 | 1008.4 |
| 20260506114531 | 19 | 360 | 1.6 | 0.0 | 0.00 | 0.00 | 1.04 | 74 | 1008.6 |
| 20260506113038 | 19 | 360 | 1.6 | 0.0 | 0.00 | 0.00 | 1.04 | 76 | 1008.6 |
| 20260506111529 | 19 | 360 | 1.6 | 0.0 | 0.00 | 0.00 | 1.04 | 76 | 1008.8 |
| 20260506110025 | 19 | 360 | 3.2 | 0.0 | 0.00 | 0.00 | 1.04 | 81 | 1008.9 |
| 20260506104524 | 18 | 360 | 4.8 | 0.0 | 0.00 | 0.00 | 1.04 | 82 | 1009.0 |
| 20260506103017 | 17 | 360 | 3.2 | 0.0 | 0.00 | 0.00 | 1.04 | 88 | 1009.4 |
| 20260506101513 | 17 | 360 | 3.2 | 0.0 | 0.00 | 0.00 | 1.04 | 89 | 1009.3 |
| 20260506100011 | 16 | 360 | 3.2 | 0.0 | 0.00 | 0.00 | 1.04 | 90 | 1009.3 |
| 20260506094508 | 16 | 360 | 3.2 | 0.0 | 0.00 | 0.00 | 1.02 | 91 | 1009.3 |
| 20260506093005 | 15 | 360 | 3.2 | 0.0 | 0.00 | 0.00 | 1.02 | 90 | 1009.3 |
| 20260506091505 | 15 | 360 | 4.8 | 0.0 | 0.00 | 0.00 | 0.99 | 90 | 1009.4 |
| 20260506090002 | 15 | 360 | 4.8 | 0.0 | 0.00 | 0.00 | 0.99 | 91 | 1009.5 |
| 20260506084501 | 15 | 360 | 1.6 | 0.0 | 0.00 | 0.00 | 0.99 | 91 | 1009.7 |
| 20260506083100 | 14 | 360 | 1.6 | 0.0 | 0.00 | 0.00 | 0.97 | 91 | 1009.9 |
| 20260506081603 | 14 | 360 | 1.6 | 0.0 | 0.00 | 0.00 | 0.97 | 92 | 1009.5 |
| 20260506080106 | 14 | 360 | 3.2 | 0.0 | 0.00 | 0.00 | 0.94 | 92 | 1009.3 |
| 20260506073054 | 13 | 360 | 3.2 | 0.0 | 0.00 | 0.00 | 0.94 | 92 | 1009.6 |
| 20260506071602 | 13 | 360 | 3.2 | 0.0 | 0.00 | 0.00 | 0.91 | 92 | 1009.5 |
| 20260506061550 | 13 | 360 | 0.0 | 0.0 | 0.00 | 0.00 | 0.84 | 93 | 1009.8 |
| 20260506044539 | 13 | 360 | 1.6 | 0.0 | 0.00 | 0.00 | 0.53 | 93 | 1010.5 |
| 20260506043039 | 13 | 360 | 3.2 | 0.0 | 0.00 | 0.00 | 0.43 | 93 | 1010.0 |
| 20260506041538 | 13 | 360 | 3.2 | 0.0 | 0.00 | 0.00 | 0.38 | 93 | 1010.1 |
| 20260506040038 | 13 | 360 | 3.2 | 0.0 | 0.00 | 0.00 | 0.38 | 93 | 1009.9 |
| 20260506034550 | 13 | 360 | 0.0 | 0.0 | 0.00 | 0.00 | 0.38 | 93 | 1009.9 |
| 20260506033037 | 13 | 360 | 0.0 | 0.0 | 0.00 | 0.00 | 0.38 | 92 | 1009.8 |
| 20260506031535 | 13 | 360 | 0.0 | 0.0 | 0.00 | 0.00 | 0.36 | 92 | 1009.9 |
| 20260506030040 | 13 | 360 | 0.0 | 0.0 | 0.00 | 0.00 | 0.33 | 92 | 1010.0 |
| 20260506024554 | 13 | 360 | 0.0 | 0.0 | 0.00 | 0.00 | 0.33 | 92 | 1010.3 |
| 20260506023030 | 13 | 360 | 0.0 | 0.0 | 0.00 | 0.00 | 0.33 | 92 | 1010.6 |
| 20260506021528 | 13 | 360 | 0.0 | 0.0 | 0.00 | 0.00 | 0.25 | 92 | 1010.7 |
| 20260506020027 | 13 | 360 | 0.0 | 0.0 | 0.00 | 0.00 | 0.15 | 92 | 1010.9 |
| 20260506014524 | 13 | 360 | 0.0 | 0.0 | 0.00 | 0.00 | 0.05 | 92 | 1011.0 |
| 20260506013034 | 13 | 360 | 0.0 | 0.0 | 0.00 | 0.00 | 0.03 | 92 | 1011.1 |
| 20260506011522 | 13 | 360 | 0.0 | 0.0 | 0.00 | 0.00 | 0.00 | 91 | 1011.3 |
| 20260506010025 | 13 | 360 | 1.6 | 0.0 | 0.00 | 0.00 | 0.00 | 91 | 1011.3 |
| 20260506004521 | 13 | 360 | 0.0 | 0.0 | 0.00 | 0.00 | 0.00 | 91 | 1011.2 |
| 20260506003020 | 13 | 360 | 0.0 | 0.0 | 0.00 | 0.00 | 0.00 | 92 | 1011.2 |
| 20260506001521 | 13 | 360 | 0.0 | 0.0 | 0.00 | 0.00 | 0.00 | 92 | 1011.3 |
| 20260506000018 | 13 | 360 | 0.0 | 0.0 | 0.00 | 0.00 | 0.00 | 92 | 1011.3 |
| 20260505234518 | 13 | 360 | 0.0 | 0.0 | 0.00 | 0.00 | 0.00 | 92 | 1011.4 |
| 20260505233020 | 13 | 360 | 0.0 | 0.0 | 0.00 | 0.00 | 0.00 | 91 | 1011.4 |
| 20260505231516 | 13 | 360 | 0.0 | 0.0 | 0.00 | 0.00 | 0.00 | 91 | 1011.5 |
| 20260505230034 | 13 | 360 | 0.0 | 0.0 | 0.00 | 0.00 | 0.00 | 91 | 1011.4 |
| 20260505224515 | 13 | 360 | 0.0 | 0.0 | 0.00 | 0.00 | 0.00 | 91 | 1011.5 |
| 20260505223013 | 13 | 360 | 0.0 | 0.0 | 0.00 | 0.00 | 0.00 | 91 | 1011.7 |
| 20260505221513 | 13 | 360 | 0.0 | 0.0 | 0.00 | 0.00 | 0.00 | 91 | 1011.8 |
| 20260505220011 | 13 | 360 | 0.0 | 0.0 | 0.00 | 0.00 | 0.00 | 90 | 1011.7 |
| 20260505214511 | 13 | 360 | 0.0 | 0.0 | 0.00 | 0.00 | 0.53 | 90 | 1011.8 |
| 20260505213011 | 13 | 360 | 1.6 | 0.0 | 0.00 | 0.00 | 0.53 | 90 | 1011.9 |
| 20260505211509 | 13 | 360 | 0.0 | 0.0 | 0.00 | 0.00 | 0.53 | 89 | 1011.9 |
| 20260505210008 | 13 | 360 | 0.0 | 0.0 | 0.00 | 0.00 | 0.53 | 89 | 1012.1 |
| 20260505204507 | 13 | 360 | 0.0 | 0.0 | 0.00 | 0.00 | 0.53 | 89 | 1011.9 |
| 20260505203006 | 13 | 360 | 0.0 | 0.0 | 0.00 | 0.00 | 0.53 | 88 | 1011.9 |
| 20260505201508 | 13 | 360 | 0.0 | 0.0 | 0.00 | 0.00 | 0.53 | 88 | 1011.9 |
| 20260505200013 | 14 | 360 | 0.0 | 0.0 | 0.00 | 0.00 | 0.53 | 88 | 1011.8 |